This demonstration page uses our WeatherBlox Daily Observations layout. Learn more.

Left ArrowRight Arrow

41.86663, -103.66717

Hourly Observations for January 18, 2015

Temp ( °F °C ) Dew Point ( °F °C ) Humidity (%) Winds ( mph kmh ) Pressure ( in mb ) Visibility ( mi km ) Precip ( " mm )
12:53 am 00:53 Clear 32 0 16 -8.9 52 52 VRB 3 6 30.01 1016 10 16 0.00 0.00
1:53 am 01:53 Clear 32 0 14 -10 47 47 Calm 29.99 1016 10 16 0.00 0.00
2:53 am 02:53 Clear 27 -2.8 16 -8.9 63 63 N 9 15 29.99 1016 10 16 0.00 0.00
3:53 am 03:53 Clear 31 -0.6 17 -8.3 56 56 W 7 11 29.99 1016 10 16 0.00 0.00
4:53 am 04:53 Clear 34 1.1 20 -6.7 56 56 NW 12 19 29.99 1016 10 16 0.00 0.00
5:53 am 05:53 Clear 37 2.8 23 -5 57 57 NW 13 20 30.00 1016 10 16 0.00 0.00
6:53 am 06:53 Clear 39 3.9 26 -3.3 60 60 NW 14 22 30.01 1016 10 16 0.00 0.00
7:53 am 07:53 Sunny 39 3.9 27 -2.8 62 62 NW 9 15 30.04 1017 10 16 0.00 0.00
8:53 am 08:53 Sunny 39 3.9 29 -1.7 67 67 W 8 13 30.05 1018 10 16 0.00 0.00
9:53 am 09:53 Sunny 39 3.9 31 -0.6 73 73 Calm 30.05 1018 10 16 0.00 0.00
10:53 am 10:53 Sunny 45 7.2 30 -1.1 56 56 NNW 9 15 30.03 1017 10 16 0.00 0.00
11:53 am 11:53 Sunny 47 8.3 31 -0.6 54 54 WNW 10 17 30.02 1017 10 16 0.00 0.00
12:53 pm 12:53 Mostly Sunny 48 8.9 32 0 54 54 W 8 13 29.97 1015 10 16 0.00 0.00
1:53 pm 13:53 Sunny 49 9.4 32 0 52 52 WNW 12 19 29.96 1015 10 16 0.00 0.00
2:53 pm 14:53 Sunny 48 8.9 34 1.1 58 58 SSW 3 6 29.99 1016 10 16 0.00 0.00
3:53 pm 15:53 Sunny 45 7.2 33 0.6 63 63 WSW 7 11 29.99 1016 10 16 0.00 0.00
4:53 pm 16:53 Clear 44 6.7 33 0.6 65 65 Calm 29.99 1016 10 16 0.00 0.00
5:53 pm 17:53 Clear 42 5.6 32 0 68 68 SW 7 11 30.00 1016 10 16 0.00 0.00
6:53 pm 18:53 Clear 42 5.6 31 -0.6 65 65 S 6 9 30.00 1016 10 16 0.00 0.00
7:53 pm 19:53 Clear 42 5.6 31 -0.6 65 65 Calm 29.99 1016 10 16 0.00 0.00
8:53 pm 20:53 Clear 41 5 30 -1.1 65 65 WNW 6 9 29.99 1016 10 16 0.00 0.00
9:53 pm 21:53 Clear 35 1.7 29 -1.7 78 78 Calm 30.01 1016 10 16 0.00 0.00
10:53 pm 22:53 Clear 38 3.3 29 -1.7 70 70 WNW 8 13 29.97 1015 10 16 0.00 0.00
11:53 pm 23:53 Clear 37 2.8 29 -1.7 73 73 NW 5 7 29.97 1015 10 16 0.00 0.00

Powered by AerisWeather